Volver al catálogo

STARLINK-31135

ActivoComunicacionesVLEO
NORAD 58771·PAYLOAD·🇺🇸 United States

Lanzado Jan 14, 2024 desde Vandenberg Space Force Base

Loading…

Próximos Pases (próximas 24 horas)

TLE

ActualizadoSource: CelesTrak SupGP

Época: Sep 14, 2026, 21:53 UTC

1 58771C 24011G   26257.91229167  .00017256  00000+0  50957-3 0  2571
2 58771  53.1584 211.4880 0001335  93.2613  44.6562 15.34397111    19

Sigue STARLINK-31135 en tiempo real con AllMySat

Download on the App Store